Simultaneous Nadir Overpasses (SNOs) Predictions

Prediction of SNOs between METOP-A and TERRA Satellite Orbit:

Table of predicted SNOs for the next 14.0 days since TLE Epoch: 10/19/2011
Index Date Time (METOP-A) METOP-A Lat,Lon TERRA Lat,Lon Distance(km) Time Diff (sec)
1 10/20/2011 00:40:38 -81.20, 35.08 -81.19, 35.29 3.71 73
2 10/20/2011 01:31:16 81.21,-156.71 81.22,-156.58 2.33 0
3 10/20/2011 02:21:57 -81.21, 10.77 -81.21, 10.97 3.33 74
4 10/22/2011 20:15:02 -81.20, 101.71 -81.20, 101.88 2.88 62
5 10/22/2011 21:05:41 81.21, -90.49 81.20, -90.38 1.87 11
6 10/25/2011 15:49:27 -81.20, 168.21 -81.20, 168.27 1.19 51
7 10/25/2011 16:40:06 81.21, -24.01 81.20, -24.00 0.84 22
8 10/28/2011 11:23:51 -81.21,-125.03 -81.20,-125.15 2.11 40
9 10/28/2011 12:14:30
